Home > Time Zones > World Clock > Weather > Japan > Tokyo > Past weeks

Flag Weather past 2 weeks in Tokyo, Japan

Now
54 °F

Cool.


Feels Like: 54 °F
Forecast: 51 / 58 °F
Wind: 3 mph from Northwest

Location: Tokyo

Current Time: Nov 24, 2014 at 5:27:35 AM

Latest Report: Nov 24, 2014 at 4:00 AM


Visibility: N/A

Pressure: 30.22 "Hg

Humidity: 65%

Dew point: 42 °F

Location of TokyoLocation

Historic Weather in Tokyo — Graph

°F

Tokyo temperature yesterday

Maximum temperature yesterday: 65 °F (at 2:00 PM)
Minimum temperature yesterday: 51 °F (at 7:00 AM)
Average temperature yesterday: 57 °F

Past Weeks' High & Low Weather Summary

 TemperatureHumidityPressure
High71 °F (Nov 10, 1:00 PM)93% (Nov 13, 3:00 AM)30.36 "Hg (Nov 13, 3:00 AM)
Low45 °F (Nov 20, 7:00 AM)20% (Nov 13, 5:00 PM)29.60 "Hg (Nov 12, 11:00 PM)
Average56 °F58%30.08 "Hg
* Reported Nov 9 4:00 AM — Nov 24 4:00 AM, Tokyo, Weather by CustomWeather, © 2014

Note: Actual official high and low records may vary slightly from our data, if they occured in-between our weather recording intervals... More about our weather records

Advertising

Tokyo weather history for previous 24 hours

 ConditionsComfort  
Time TempWeatherWind HumidityBarometerVisibility
4:00 AM
Nov 24
54 °FCool.3 mph65%30.22 "HgN/A
3:00 AM54 °FPassing clouds.3 mph64%30.21 "Hg12 mi
2:00 AM55 °FCool.2 mph60%30.22 "HgN/A
1:00 AM56 °FCool.5 mph60%30.24 "HgN/A
12:00 AM55 °FCool.3 mph65%30.24 "HgN/A
11:00 PM
Nov 23
56 °FCool.6 mph64%30.24 "HgN/A
10:00 PM58 °FCool.5 mph69%30.26 "HgN/A
9:00 PM58 °FPassing clouds.3 mph69%30.25 "Hg12 mi
8:00 PM59 °FCool.6 mph69%30.23 "HgN/A
7:00 PM59 °FCool.6 mph69%30.22 "HgN/A
6:00 PM60 °FPassing clouds.7 mph68%30.20 "Hg19 mi
5:00 PM61 °FCool.7 mph65%30.18 "HgN/A
4:00 PM64 °FMild.5 mph60%30.16 "HgN/A
3:00 PM65 °FScattered clouds.5 mph52%30.14 "Hg12 mi
2:00 PM65 °FMild.6 mph51%30.13 "HgN/A
1:00 PM65 °FMild.6 mph48%30.13 "HgN/A
12:00 PM64 °FPassing clouds.6 mph46%30.14 "Hg12 mi
11:00 AM61 °FRefreshingly cool.7 mph45%30.17 "HgN/A
10:00 AM57 °FRefreshingly cool.8 mph49%30.18 "HgN/A
9:00 AM54 °FSunny.8 mph53%30.18 "Hg25 mi
8:00 AM51 °FCool.6 mph63%30.17 "HgN/A
7:00 AM51 °FCool.3 mph64%30.16 "HgN/A
6:00 AM51 °FClear.2 mph64%30.14 "Hg12 mi
5:00 AM52 °FCool.6 mph64%30.14 "HgN/A
Weather by CustomWeather, © 2014

See weather overviewHow to use our weather pages